Location: Kaarina
(60.4167°N, 22.4167°E)
Time: 22:37:03
(UTC+03:00)

Cosmos 2154 Rocket - Pass Details

Date: 24 August 2019
Orbit: 965 x 997 km, 82.9° (Epoch: 23 September)

Event Time Altitude Azimuth Distance (km) Brightness Sun altitude
Rises 22:39:24 0° 345° (NNW) 3,708 8.2 -10.8°
Reaches altitude 10° 22:41:59 10° 349° (N) 2,751 7.3 -11.0°
Maximum altitude 22:48:13 59° 69° (ENE) 1,122 4.2 -11.5°
Enters shadow 22:53:18 16° 146° (SE) 2,335 5.3 -11.9°
